Temp
-12 -12 -12 -12 -12 -12 -12 -13 -13 -13 -13 -13 -14 -14 -14 -15 -15 -15 -15 -16 -16 -16 -16 -16 -16 -16 -16 -17 -17 -18 -18 -17 -16 -17 -17 -16 -16 -16 -16 -15 -15 -15 -15 -15 -15
-12 -12 -12 -12 -13 -13 -13 -13 -14 -14 -14 -14 -14 -15 -15 -15 -15 -15 -16 -16 -16 -16 -16 -16 -16 -16 -16 -16 -17 -18 -18 -17 -19 -18 -18 -16 -16 -17 -16 -16 -15 -16 -15 -16 -16
-12 -12 -12 -12 -12 -13 -13 -14 -14 -14 -14 -15 -15 -15 -15 -16 -16 -16 -16 -16 -16 -16 -16 -16 -16 -16 -17 -18 -19 -19 -19 -20 -19 -19 -20 -19 -18 -19 -17 -16 -16 -16 -16 -16 -16
-12 -12 -12 -13 -13 -13 -13 -13 -14 -14 -14 -15 -15 -16 -16 -16 -16 -16 -16 -16 -16 -16 -16 -17 -17 -18 -18 -19 -19 -20 -20 -20 -20 -21 -21 -21 -21 -20 -20 -16 -18 -18 -17 -17 -17
-12 -12 -12 -13 -13 -13 -14 -14 -14 -14 -14 -14 -15 -15 -15 -16 -17 -17 -16 -16 -16 -16 -16 -17 -17 -18 -19 -19 -19 -20 -20 -20 -21 -21 -22 -22 -23 -21 -20 -20 -20 -19 -18 -18 -18
-12 -13 -13 -13 -14 -14 -14 -14 -14 -14 -14 -15 -15 -15 -16 -16 -16 -16 -16 -17 -17 -17 -18 -18 -19 -20 -20 -20 -21 -21 -21 -22 -22 -23 -24 -24 -24 -24 -22 -22 -21 -21 -19 -19 -18
-13 -13 -13 -14 -14 -14 -14 -15 -15 -15 -15 -15 -16 -16 -16 -16 -16 -17 -17 -17 -18 -18 -19 -20 -21 -21 -22 -22 -23 -23 -23 -24 -25 -28 -29 -29 -29 -26 -24 -23 -22 -22 -21 -20 -19
-13 -13 -14 -14 -14 -15 -15 -15 -15 -16 -16 -16 -16 -16 -17 -17 -17 -17 -18 -18 -19 -20 -21 -22 -22 -23 -23 -23 -24 -25 -26 -28 -28 -30 -30 -31 -31 -27 -27 -25 -24 -23 -22 -21 -20
-14 -14 -14 -14 -15 -15 -15 -16 -16 -16 -16 -17 -17 -17 -18 -18 -18 -19 -19 -20 -22 -23 -23 -23 -24 -25 -25 -26 -27 -28 -29 -30 -30 -30 -30 -31 -31 -30 -29 -28 -26 -24 -23 -22 -21
-14 -14 -14 -15 -15 -15 -16 -16 -16 -17 -17 -18 -18 -18 -18 -19 -19 -20 -21 -22 -23 -24 -24 -25 -25 -26 -27 -28 -29 -30 -31 -31 -31 -30 -30 -30 -30 -30 -30 -31 -29 -28 -25 -23 -22
-15 -15 -15 -16 -16 -16 -16 -16 -17 -17 -17 -18 -18 -19 -19 -20 -20 -21 -22 -24 -24 -25 -25 -26 -27 -29 -29 -30 -31 -31 -31 -31 -30 -30 -30 -30 -30 -29 -30 -31 -31 -30 -28 -26 -23
-15 -16 -16 -16 -16 -16 -16 -17 -17 -18 -18 -19 -19 -20 -20 -21 -22 -23 -24 -25 -25 -26 -27 -27 -28 -29 -30 -30 -31 -31 -31 -31 -30 -30 -30 -30 -29 -29 -30 -30 -31 -31 -29 -27 -24
-15 -16 -16 -17 -17 -17 -17 -17 -18 -19 -19 -20 -21 -21 -22 -23 -23 -24 -25 -26 -26 -27 -27 -28 -29 -30 -30 -30 -31 -30 -31 -31 -30 -29 -29 -30 -29 -29 -30 -30 -30 -30 -30 -29 -26
-16 -16 -17 -17 -17 -17 -18 -18 -19 -20 -20 -21 -22 -23 -24 -25 -25 -26 -27 -27 -27 -28 -28 -28 -30 -31 -30 -31 -31 -31 -31 -31 -30 -30 -29 -31 -29 -29 -30 -30 -30 -30 -30 -30 -29
-17 -17 -17 -17 -17 -18 -18 -19 -20 -21 -22 -23 -24 -25 -25 -26 -27 -27 -28 -28 -28 -29 -29 -29 -30 -31 -31 -31 -31 -31 -31 -30 -30 -30 -30 -30 -30 -28 -29 -29 -30 -30 -30 -30 -30
-17 -17 -17 -18 -18 -18 -19 -20 -21 -22 -23 -24 -25 -26 -27 -27 -28 -28 -29 -29 -29 -29 -30 -30 -31 -31 -31 -31 -31 -31 -31 -30 -30 -30 -29 -30 -30 -29 -29 -30 -29 -29 -29 -30 -30
-17 -17 -17 -18 -18 -19 -20 -21 -22 -22 -24 -25 -26 -27 -28 -28 -28 -29 -29 -29 -29 -30 -30 -30 -30 -31 -31 -31 -31 -31 -31 -30 -30 -29 -29 -30 -29 -29 -29 -29 -29 -29 -29 -30 -30
-18 -18 -18 -18 -19 -20 -21 -21 -22 -23 -24 -25 -27 -28 -28 -29 -29 -29 -29 -29 -30 -30 -30 -30 -29 -31 -32 -32 -31 -31 -31 -31 -30 -30 -29 -30 -29 -29 -30 -29 -30 -30 -29 -29 -30
-17 -18 -19 -19 -19 -20 -21 -22 -23 -24 -24 -25 -27 -28 -29 -29 -29 -30 -30 -30 -30 -30 -30 -30 -29 -31 -31 -32 -32 -31 -31 -31 -31 -30 -30 -29 -29 -29 -29 -29 -29 -29 -29 -29 -29
-17 -17 -18 -19 -19 -20 -21 -22 -23 -24 -25 -25 -27 -29 -30 -30 -30 -30 -30 -30 -30 -30 -30 -30 -29 -31 -31 -32 -31 -31 -31 -31 -31 -30 -29 -28 -29 -29 -29 -29 -29 -29 -29 -29 -29
-17 -17 -18 -19 -19 -20 -21 -22 -22 -24 -26 -26 -27 -28 -30 -30 -30 -30 -30 -30 -30 -30 -30 -30 -30 -30 -31 -32 -31 -31 -30 -31 -31 -31 -31 -29 -28 -29 -29 -29 -29 -29 -29 -29 -30
-17 -18 -19 -19 -20 -21 -22 -23 -23 -25 -27 -27 -28 -28 -30 -31 -31 -31 -30 -30 -31 -31 -30 -31 -31 -30 -31 -31 -31 -31 -31 -31 -31 -31 -30 -30 -29 -29 -29 -29 -29 -29 -30 -30 -30
-18 -19 -20 -20 -21 -22 -22 -22 -24 -25 -26 -27 -28 -28 -29 -31 -32 -32 -31 -31 -31 -31 -31 -31 -31 -31 -31 -31 -31 -31 -31 -31 -31 -31 -30 -30 -29 -29 -29 -29 -29 -29 -30 -30 -29
-19 -19 -19 -19 -21 -22 -23 -23 -24 -24 -26 -27 -28 -28 -29 -31 -31 -31 -32 -32 -31 -31 -31 -31 -31 -31 -31 -31 -31 -31 -31 -31 -31 -30 -30 -30 -29 -29 -29 -29 -29 -29 -30 -30 -30
-19 -19 -20 -20 -22 -23 -23 -24 -24 -25 -27 -28 -29 -29 -30 -31 -31 -32 -33 -32 -32 -31 -31 -31 -31 -31 -31 -31 -31 -31 -31 -31 -30 -30 -30 -30 -29 -29 -29 -28 -28 -29 -29 -29 -29
-20 -20 -20 -20 -22 -22 -23 -23 -25 -25 -27 -28 -29 -30 -32 -31 -33 -33 -33 -32 -32 -31 -31 -31 -31 -31 -31 -32 -31 -31 -31 -31 -30 -30 -30 -30 -29 -29 -29 -28 -28 -28 -28 -28 -28
-20 -21 -21 -21 -22 -23 -23 -23 -24 -26 -26 -29 -31 -32 -32 -32 -33 -33 -33 -32 -32 -31 -31 -31 -32 -31 -31 -31 -31 -31 -31 -31 -30 -30 -30 -30 -30 -29 -29 -28 -28 -28 -28 -27 -27
Height
5744 5740 5737 5733 5730 5727 5724 5720 5716 5712 5708 5704 5699 5694 5690 5686 5682 5679 5675 5672 5667 5663 5659 5656 5649 5644 5638 5634 5627 5619 5613 5619 5629 5620 5619 5625 5624 5627 5625 5630 5632 5643 5652 5656 5657
5739 5735 5732 5728 5724 5721 5718 5715 5712 5708 5703 5700 5695 5690 5686 5680 5676 5673 5667 5662 5658 5652 5647 5642 5636 5630 5622 5615 5608 5598 5591 5600 5597 5595 5588 5600 5604 5598 5605 5612 5626 5617 5636 5634 5637
5737 5732 5728 5724 5719 5715 5711 5707 5704 5700 5695 5692 5687 5681 5676 5670 5666 5662 5654 5648 5643 5636 5630 5624 5617 5610 5603 5594 5588 5582 5576 5570 5576 5570 5562 5565 5578 5572 5581 5591 5605 5595 5608 5615 5617
5733 5730 5725 5720 5716 5712 5707 5702 5697 5691 5686 5681 5676 5671 5664 5659 5652 5645 5637 5630 5624 5617 5610 5602 5594 5587 5578 5570 5564 5559 5552 5544 5550 5545 5538 5535 5539 5543 5545 5567 5561 5568 5580 5592 5597
5727 5724 5719 5715 5711 5705 5699 5695 5688 5682 5677 5672 5666 5659 5651 5644 5637 5628 5620 5613 5605 5597 5588 5578 5570 5561 5553 5544 5536 5528 5525 5520 5514 5513 5511 5502 5497 5508 5518 5531 5526 5536 5552 5562 5574
5725 5720 5715 5710 5705 5699 5694 5690 5683 5677 5671 5664 5656 5648 5641 5634 5623 5614 5604 5596 5588 5578 5568 5559 5552 5541 5534 5525 5515 5508 5501 5498 5494 5488 5475 5468 5468 5468 5484 5495 5496 5501 5519 5534 5546
5721 5716 5712 5706 5700 5695 5689 5683 5676 5671 5664 5657 5649 5642 5633 5623 5614 5604 5593 5584 5573 5563 5552 5540 5531 5521 5509 5504 5494 5490 5483 5482 5479 5466 5455 5447 5431 5443 5451 5466 5467 5473 5484 5504 5517
5717 5711 5706 5701 5695 5688 5682 5676 5669 5662 5655 5648 5640 5632 5623 5613 5604 5595 5582 5570 5557 5546 5539 5528 5519 5509 5497 5486 5482 5477 5463 5456 5464 5453 5449 5431 5417 5428 5431 5433 5436 5445 5453 5467 5487
5714 5708 5702 5696 5688 5681 5675 5668 5660 5653 5646 5638 5629 5621 5611 5602 5592 5582 5568 5553 5541 5532 5523 5513 5502 5491 5482 5471 5467 5460 5447 5447 5444 5451 5433 5426 5414 5420 5418 5414 5412 5415 5424 5437 5454
5707 5701 5694 5689 5683 5676 5669 5661 5652 5644 5636 5626 5618 5609 5597 5589 5578 5564 5550 5537 5529 5519 5511 5503 5492 5481 5472 5462 5454 5448 5440 5439 5435 5438 5426 5418 5409 5411 5409 5400 5395 5393 5397 5408 5426
5699 5693 5686 5680 5674 5668 5662 5654 5647 5639 5626 5618 5608 5598 5588 5578 5563 5550 5537 5526 5517 5509 5499 5492 5485 5470 5464 5454 5447 5441 5434 5430 5429 5428 5412 5408 5403 5401 5397 5391 5384 5378 5380 5389 5404
5693 5686 5678 5672 5666 5658 5650 5641 5634 5626 5617 5606 5595 5585 5574 5562 5552 5536 5524 5516 5509 5501 5490 5483 5475 5462 5455 5448 5439 5434 5426 5425 5420 5419 5407 5402 5396 5393 5388 5380 5376 5369 5365 5367 5380
5685 5678 5671 5662 5653 5645 5638 5630 5621 5612 5603 5592 5581 5569 5558 5546 5537 5525 5512 5503 5496 5490 5480 5471 5464 5454 5446 5441 5430 5428 5419 5418 5412 5407 5403 5391 5388 5386 5382 5374 5368 5362 5355 5354 5362
5678 5671 5663 5654 5645 5633 5626 5616 5606 5598 5587 5579 5566 5555 5542 5529 5521 5510 5499 5492 5484 5477 5470 5462 5455 5444 5439 5430 5421 5415 5415 5411 5407 5400 5394 5388 5379 5379 5372 5368 5362 5357 5351 5348 5349
5670 5662 5651 5641 5636 5625 5615 5604 5594 5585 5571 5560 5550 5539 5527 5517 5508 5500 5489 5480 5473 5464 5457 5454 5446 5437 5432 5423 5416 5412 5409 5405 5401 5395 5389 5386 5373 5368 5363 5361 5356 5351 5346 5344 5340
5662 5652 5643 5633 5623 5612 5602 5591 5580 5572 5559 5549 5537 5525 5516 5506 5498 5490 5480 5469 5463 5457 5449 5442 5438 5430 5424 5418 5411 5406 5403 5401 5395 5390 5383 5376 5366 5363 5358 5354 5351 5347 5342 5338 5335
5653 5644 5632 5625 5615 5600 5590 5578 5567 5556 5542 5531 5522 5513 5506 5498 5491 5483 5476 5467 5458 5447 5443 5439 5432 5425 5417 5412 5409 5403 5397 5392 5388 5381 5374 5369 5362 5359 5354 5349 5345 5341 5337 5332 5329
5644 5636 5623 5613 5603 5591 5579 5568 5557 5548 5535 5521 5511 5504 5496 5488 5482 5476 5468 5460 5452 5443 5433 5428 5425 5420 5413 5404 5399 5401 5395 5389 5379 5373 5368 5365 5360 5356 5351 5346 5340 5334 5327 5324 5322
5638 5630 5615 5605 5594 5583 5572 5560 5547 5535 5523 5510 5500 5490 5488 5480 5471 5465 5460 5452 5444 5436 5428 5419 5419 5416 5408 5401 5396 5395 5390 5386 5378 5373 5365 5361 5358 5354 5349 5343 5335 5326 5317 5312 5315
5629 5621 5610 5598 5586 5576 5565 5553 5538 5526 5512 5499 5488 5481 5474 5470 5462 5455 5452 5444 5436 5430 5422 5416 5408 5410 5406 5400 5394 5390 5386 5381 5376 5368 5360 5357 5355 5350 5345 5339 5329 5318 5309 5306 5310
5617 5608 5598 5588 5575 5565 5552 5539 5526 5514 5500 5488 5476 5468 5463 5456 5453 5447 5443 5439 5429 5424 5417 5409 5404 5405 5400 5395 5390 5387 5383 5379 5373 5370 5362 5354 5353 5346 5339 5333 5324 5314 5308 5307 5311
5605 5594 5584 5573 5561 5548 5537 5520 5509 5499 5486 5474 5464 5456 5449 5444 5438 5436 5433 5429 5421 5416 5411 5403 5397 5395 5395 5391 5387 5384 5380 5376 5370 5367 5362 5356 5351 5344 5339 5332 5324 5314 5310 5312 5311
5591 5581 5570 5558 5545 5533 5523 5510 5498 5483 5473 5462 5451 5445 5438 5432 5425 5424 5422 5421 5416 5409 5403 5398 5392 5388 5388 5387 5381 5380 5377 5373 5369 5365 5361 5355 5350 5345 5339 5334 5327 5318 5315 5317 5318
5574 5561 5553 5542 5532 5516 5506 5497 5481 5472 5457 5447 5438 5431 5424 5417 5415 5411 5411 5408 5406 5403 5397 5390 5388 5384 5381 5380 5376 5375 5374 5371 5367 5363 5358 5354 5350 5345 5341 5337 5330 5322 5319 5319 5320
5562 5553 5536 5525 5514 5499 5491 5472 5462 5451 5442 5431 5421 5420 5411 5402 5401 5398 5398 5397 5396 5395 5391 5384 5381 5379 5378 5374 5373 5370 5369 5368 5364 5361 5356 5354 5350 5346 5342 5339 5333 5328 5324 5324 5325
5544 5534 5531 5515 5505 5491 5481 5470 5448 5443 5427 5417 5407 5404 5397 5393 5390 5383 5383 5385 5385 5386 5384 5379 5377 5375 5374 5369 5369 5367 5366 5364 5362 5358 5355 5352 5350 5346 5343 5341 5337 5335 5332 5331 5331
5536 5524 5506 5499 5485 5476 5468 5454 5441 5425 5424 5405 5396 5388 5385 5383 5375 5376 5373 5374 5375 5376 5376 5373 5371 5369 5369 5365 5365 5364 5362 5361 5359 5357 5354 5352 5350 5347 5345 5342 5340 5339 5337 5337 5337
Wind_Speed
19 19 18 20 19 20 23 25 26 27 29 30 33 36 37 40 40 40 42 44 47 50 53 56 58 61 65 68 71 73 76 76 74 76 76 77 80 79 80 78 78 73 68 66 67
27 27 25 25 25 25 26 27 27 27 27 29 31 34 36 38 40 40 42 45 49 54 58 60 63 67 70 73 75 77 80 80 77 81 85 86 85 87 86 85 79 84 75 74 74
28 28 27 27 29 30 31 32 33 35 36 36 37 38 40 43 47 48 49 52 55 60 64 67 69 71 73 74 74 76 80 80 82 85 88 91 91 92 94 93 87 91 86 81 80
29 30 31 31 31 33 34 34 36 38 40 42 44 46 48 49 51 52 56 60 63 65 68 71 73 75 78 80 82 83 82 85 87 88 92 96 98 97 98 101 97 93 92 87 85
29 30 31 33 35 36 37 38 39 41 44 45 47 51 54 56 58 62 63 65 68 72 76 79 82 84 86 89 90 91 93 97 99 100 99 93 92 96 98 96 99 96 93 92 87
29 30 32 33 35 37 39 41 43 44 46 47 48 51 54 57 62 63 65 68 73 78 81 84 85 87 89 90 92 93 96 98 99 94 89 85 84 87 90 91 93 93 95 93 92
30 32 32 34 36 38 41 42 45 47 48 48 50 52 54 57 59 62 67 71 76 80 84 85 86 86 88 87 88 90 93 87 77 54 53 50 64 71 80 82 94 95 93 93 95
29 32 34 36 39 40 42 45 46 48 48 49 52 54 57 58 59 62 67 72 79 83 81 80 80 79 81 85 85 76 72 62 48 35 34 42 55 54 61 78 90 96 99 97 95
34 36 37 38 39 41 44 47 47 48 49 51 53 55 58 59 62 65 72 78 76 74 73 73 73 73 76 69 66 61 57 44 38 24 40 40 48 38 41 56 82 95 99 101 100
36 38 40 40 43 45 48 49 50 50 50 51 54 58 60 61 64 71 74 72 72 70 70 66 64 65 61 57 53 51 41 39 39 15 39 46 48 40 25 34 48 72 96 101 102
37 41 42 44 45 49 50 52 50 50 52 52 54 55 58 65 67 68 72 71 69 65 63 58 54 50 48 45 45 41 41 40 28 24 44 39 37 19 24 30 39 40 69 95 102
40 42 45 46 49 52 54 54 53 52 50 54 55 58 62 62 63 69 70 68 62 58 52 52 45 41 43 43 45 44 43 33 27 28 41 37 31 19 27 31 34 41 47 75 99
43 45 47 49 51 56 56 57 56 54 57 54 61 60 61 63 63 65 64 60 57 53 45 46 36 40 42 45 45 38 37 28 33 35 33 41 36 22 15 18 29 28 31 49 86
46 48 50 52 53 56 58 59 57 57 61 64 59 61 61 63 62 61 59 54 53 47 41 42 34 38 42 44 40 38 27 27 31 33 33 39 32 26 26 27 25 24 28 25 46
47 51 54 54 55 57 59 61 60 61 65 59 64 60 59 61 59 55 50 51 51 45 44 38 33 39 41 40 30 18 22 26 30 35 39 36 39 26 19 20 20 18 23 24 23
50 54 55 58 58 59 61 63 64 65 63 64 61 59 56 55 51 48 47 49 46 47 44 41 36 38 38 36 26 21 24 24 31 37 42 31 32 17 17 21 14 20 23 22 21
54 56 58 59 60 61 63 63 66 66 69 67 62 55 51 50 46 45 46 43 46 48 43 37 32 32 34 36 26 25 27 31 35 40 42 26 19 16 22 21 20 25 24 24 23
55 57 61 62 63 63 62 63 65 68 68 67 62 53 48 48 45 45 43 43 46 48 47 42 32 24 29 37 34 17 24 27 38 41 35 12 11 18 20 24 30 38 32 25 19
57 57 61 62 64 63 62 64 66 68 69 67 63 59 49 47 44 45 42 40 46 45 46 44 33 21 27 30 29 21 22 25 33 34 30 14 13 20 24 28 36 32 31 23 16
61 61 63 67 69 67 67 67 69 69 67 66 63 59 56 52 49 46 46 42 45 43 43 44 40 20 22 26 26 23 23 28 27 30 31 17 15 23 26 30 33 35 25 8 11
65 66 67 69 73 72 72 73 74 70 66 64 61 59 56 55 49 49 41 44 40 42 43 43 36 22 21 31 17 20 22 24 26 24 27 24 19 26 32 32 36 32 14 1 6
69 70 73 73 76 72 75 77 78 69 64 61 59 55 53 53 59 40 36 36 41 40 41 40 34 24 20 23 18 17 19 20 24 23 20 24 23 27 26 33 33 25 4 4 2
72 73 73 76 76 76 78 80 77 70 62 58 57 54 54 52 49 40 40 37 37 39 40 40 34 26 21 22 24 16 15 17 19 19 16 19 20 19 24 27 28 17 6 13 8
76 79 80 82 80 82 81 82 78 71 63 57 56 54 56 54 50 43 33 35 33 36 36 36 30 27 25 24 27 16 12 16 16 15 13 14 15 17 19 21 26 17 6 3 9
78 80 84 87 84 85 84 82 79 70 64 61 60 54 53 54 47 36 38 34 26 33 32 32 28 26 23 23 22 17 13 14 15 15 12 12 13 14 15 17 23 23 18 7 15
82 84 85 88 85 86 84 82 74 67 64 62 62 57 54 52 36 32 29 21 26 29 28 26 24 24 20 19 20 17 15 13 12 13 11 11 10 11 10 12 18 20 17 6 6
83 85 90 91 90 89 87 83 76 68 63 62 57 55 53 43 35 30 20 28 32 28 29 26 22 24 16 16 17 17 15 12 10 11 9 10 9 9 7 7 11 12 16 15 15
Wind_Direction
1 360 359 355 338 329 325 326 324 319 316 312 308 302 298 294 291 290 287 284 281 280 279 278 279 280 280 279 278 276 275 276 277 276 274 269 267 262 260 260 258 256 254 251 246
0 357 357 353 346 341 340 336 332 327 321 314 308 303 301 298 296 294 289 285 282 281 279 279 279 280 282 280 281 281 281 282 281 278 276 269 265 265 261 258 258 259 253 250 246
358 354 348 344 341 339 337 335 331 327 325 320 313 308 305 301 299 298 292 289 288 287 285 284 283 283 283 283 283 282 284 285 282 281 281 277 270 269 264 259 258 256 253 248 246
354 350 348 345 339 337 332 330 327 324 322 319 317 314 310 307 304 301 298 297 297 295 293 292 291 289 288 286 286 286 288 289 287 286 284 282 277 269 266 261 256 252 250 247 246
345 345 343 341 339 337 334 328 324 321 319 318 315 314 313 311 310 306 304 301 300 299 297 295 293 292 292 292 291 292 289 292 292 290 287 279 271 268 264 260 257 251 246 244 241
339 341 339 338 337 333 330 328 323 321 317 314 313 312 310 308 305 305 303 302 300 298 296 294 294 295 294 297 297 296 296 295 293 288 282 276 269 260 255 250 247 246 244 241 238
336 333 333 332 328 328 326 325 322 321 317 312 311 310 308 305 303 302 301 299 298 296 296 299 301 303 301 299 299 299 296 292 291 290 288 280 264 258 254 245 242 240 238 236 236
332 329 329 327 326 324 324 324 321 319 315 312 310 310 309 306 304 303 300 297 295 297 300 302 303 302 303 301 300 299 295 296 293 289 286 283 282 270 255 244 239 237 235 231 230
329 329 327 324 322 322 323 324 321 318 315 312 313 311 307 309 308 305 300 300 301 306 308 308 309 310 306 303 302 300 298 292 294 273 282 282 291 309 293 259 243 236 235 232 226
326 325 324 324 323 323 323 323 321 319 318 314 313 312 312 310 309 304 301 302 306 310 310 311 313 308 304 302 304 307 297 289 302 281 280 295 292 302 298 294 269 249 237 232 230
324 324 324 323 322 322 323 323 322 321 318 317 313 310 311 309 305 303 301 305 309 312 311 314 311 304 303 304 304 303 304 296 303 294 299 304 305 296 288 292 287 272 247 237 230
324 324 323 324 325 325 324 324 324 323 319 317 314 312 310 307 304 303 303 309 311 313 314 315 309 297 301 302 302 297 297 301 299 305 297 303 320 303 296 289 295 283 259 241 231
325 326 325 325 326 326 327 327 326 325 321 319 317 315 312 307 308 306 308 311 316 319 315 312 308 304 307 309 303 296 292 297 306 308 299 304 314 303 291 288 300 311 294 253 236
327 328 327 326 328 328 329 328 327 325 322 321 319 317 313 312 312 313 317 320 322 320 319 315 311 308 314 320 311 305 285 299 309 308 310 313 310 313 295 290 298 304 308 304 251
329 329 329 329 330 330 330 329 328 327 324 324 320 319 316 315 316 321 326 326 326 320 318 322 313 305 314 322 306 310 292 300 304 307 313 312 306 305 303 299 295 293 299 305 306
331 330 331 331 331 330 331 331 329 327 325 322 322 320 319 319 322 326 337 332 326 322 322 320 311 303 314 324 299 292 295 304 304 300 314 333 310 329 322 330 290 297 295 295 315
330 332 332 333 331 331 333 331 328 327 327 325 325 323 321 319 322 329 334 333 337 331 328 323 317 301 314 320 300 292 302 305 303 318 325 326 308 323 342 334 327 325 313 289 295
331 334 333 333 332 332 331 330 329 327 326 325 323 322 320 321 320 325 328 327 332 337 335 329 330 318 318 321 314 295 296 308 312 323 327 317 299 320 332 326 314 309 306 294 275
335 335 332 332 330 330 330 329 327 327 326 325 323 320 323 320 319 324 325 326 328 332 336 332 334 327 328 321 313 305 301 310 313 319 325 314 302 323 327 326 322 316 306 284 243
335 334 332 331 329 330 330 329 327 327 327 324 321 317 317 315 313 313 320 323 324 326 331 333 328 326 326 326 305 296 304 316 320 323 326 322 316 323 329 337 339 330 322 284 218
334 334 332 330 330 331 331 330 330 330 325 319 315 314 312 309 304 311 310 314 317 321 325 324 323 328 323 328 305 289 304 316 318 325 324 320 332 330 340 346 346 335 332 287 209
333 334 332 330 329 330 331 330 331 328 321 317 313 310 308 305 304 305 310 313 316 315 320 318 317 318 315 325 324 294 308 314 319 325 328 323 333 337 347 352 348 348 13 99 270
331 332 330 329 329 329 331 331 328 324 320 316 311 309 308 304 303 299 300 302 302 307 312 314 314 316 309 318 329 308 307 309 314 319 330 339 342 349 354 354 360 5 46 157 170
330 331 330 330 329 329 331 331 327 324 320 314 311 311 309 307 307 305 289 290 299 304 305 307 313 311 310 314 321 309 304 302 314 316 333 346 346 352 359 359 16 18 49 146 213
329 331 329 328 329 328 331 328 325 325 319 315 312 313 309 308 317 311 277 289 287 296 300 303 304 300 310 300 310 305 305 304 302 316 332 344 346 346 358 6 25 37 58 94 148
327 327 328 327 327 327 331 328 323 325 317 315 310 312 309 310 309 291 282 281 282 287 292 297 291 290 309 287 302 297 287 302 301 313 332 333 345 351 356 13 30 38 65 54 161
326 326 325 327 325 328 329 328 326 322 320 311 309 303 301 303 287 282 252 273 275 278 283 287 280 282 311 281 286 289 281 283 308 325 324 326 344 350 6 30 45 37 61 82 73